Weather in Mont Tremblant

Canada     46°12′37″N   74°35′19″W
temp.,
°C
wind,
m/s
gust,
m/s
humid.,
%
clouds,
%
prec.,
mm/h
press.,
hPa
HPBL,
m
14 may, fri
fri1423:00+7nnw119095 0.3 102211
02:00+5nw11939 0.3 102210
05:00+5nw22945 0.0 102221
08:00+10w23795 0.0 1022238
11:00+16wnw37475 0.0 10211151
14:00+16w364383 0.0 10201405
17:00+14ese226353 0.1 1019112
20:00+10n227841 0.3 102144
15 may, sat
sat1523:00+7wnw008494 0.1 102110
02:00+7nne008295 0.1 102110
05:00+6wnw1187100 0.0 102210
08:00+11w1270100 0.0 1022160
11:00+16wsw3449100 0.0 1022988
14:00+18wsw4537100 0.0 10202876
17:00+15wnw4760100 0.1 10201001
20:00+9s229597 0.8 102245
16 may, sun
sun1623:00+7sw019693 0.0 102311
02:00+6w119419 0.0 102210
05:00+5w01957 0.0 102310
08:00+11w11835 0.0 1024221
11:00+16w23596 0.5 10231088
14:00+16wnw347098 3.5 10221113
17:00+15nne2278100 2.2 1022230
20:00+11sse119399 5.8 102317
17 may, mon
mon1723:00+9ene1191100 0.1 102310
02:00+8e118960 0.1 102410
05:00+7ese11935 0.0 102510
08:00+12s11845 0.0 1025178
11:00+17ssw22715 1.0 1024641
14:00+17sw346880 2.9 10231178
17:00+17sw346857 2.1 1023997
20:00+13s22860 3.3 102319
18 may, tue
tue1823:00+10s229484 0.1 102424
02:00+11s1191100 0.1 102423
05:00+9wsw0192100 0.0 102410
08:00+12w1385100 0.0 1026172
11:00+12wsw128598 0.0 1026124
14:00+20w585280 0.0 10241751
17:00+17wsw287099 0.0 1023419
20:00+15sw2781100 0.0 1023179